User: anonymous   Login
Location: Allentsteig
(48.6833°N, 15.3167°E)
Time: 02:00:37
(UTC+00:00)
Language:

Cosmos 2298 Rocket - Orbit

View from above orbital plane
View from above orbital plane
View from above satellite
View from above satellite

Ground track
Ground track

The orbit data is extracted from the following two-line orbital elements,

1 23432U 94083B   21127.55522503 -.00000007  00000-0  67448-5 0  9990
2 23432  74.0329 220.4441 0004277  82.7586  17.7661 14.33558065379607
Epoch (UTC): 07 May 2021 13:19:31
Eccentricity: 0.0004277
inclination: 74.0329°
perigee height: 777 km
apogee height: 783 km
right ascension of ascending node: 220.4441°
argument of perigee: 82.7586°
revolutions per day: 14.33558065
mean anomaly at epoch: 17.7661°
orbit number at epoch: 37960

The dashed part of the orbit path shows where the satellite is in the earth's shadow,  

DLR